Location: Stockholm
(59.3330°N, 18.0500°E)
Time: 23:58:16
(UTC+02:00)

NOAA 18 - Pass Details

Date: 11 April 2023
Orbit: 838 x 860 km, 98.9° (Epoch: 02 June)

Event Time Altitude Azimuth Distance (km) Brightness Sun altitude
Exits shadow 22:44:32 22° 185° (S) 1,790 6.5 -17.8°
Maximum altitude 22:48:04 58° 258° (WSW) 1,003 5.6 -18.0°
Drops below altitude 10° 22:53:34 10° 337° (NNW) 2,506 8.9 -18.4°
Sets 22:56:00 0° 342° (NNW) 3,444 9.9 -18.5°
